• In Latvia
  • List of Countries
  • For 7 days
  • Water Temperature
  • Satellite Maps
  • Weather Map
  • Weather Widgets
  • user-avatar
    Login

    Hourly Weather Kitzbuhel

    Today, 23 February, Thursday

    Time Temperature Precipitation Wind Pressure Humidity
    00:00 +2°C° 0 mm 2 mps 673 mmHg 82%
    01:00 +3°C° 0 mm 2 mps 672 mmHg 84%
    02:00 +2°C° 0 mm 2 mps 672 mmHg 83%
    03:00 +2°C° 0 mm 2 mps 672 mmHg 82%
    04:00 +2°C° 0 mm 2 mps 672 mmHg 81%
    05:00 +1°C° 0 mm 2 mps 672 mmHg 80%
    06:00 +1°C° 0 mm 2 mps 672 mmHg 80%
    07:00 -1°C° 0 mm 2 mps 671 mmHg 78%
    08:00 +2°C° 0 mm 2 mps 671 mmHg 81%
    09:00 +4°C° 0 mm 2 mps 671 mmHg 84%
    10:00 +5°C° 0 mm 3 mps 672 mmHg 87%
    11:00 +7°C° 0 mm 3 mps 671 mmHg 87%
    12:00 +7°C° 0 mm 3 mps 671 mmHg 87%
    13:00 +8°C° 0 mm 3 mps 670 mmHg 87%
    14:00 +8°C° 0 mm 3 mps 669 mmHg 88%
    15:00 +7°C° 0 mm 3 mps 669 mmHg 89%
    16:00 +7°C° 0 mm 3 mps 668 mmHg 90%
    17:00 +5°C° 0 mm 3 mps 668 mmHg 90%
    18:00 +4°C° 0 mm 3 mps 668 mmHg 90%
    19:00 +2°C° 0 mm 3 mps 668 mmHg 89%
    20:00 +2°C° 0 mm 3 mps 668 mmHg 90%
    21:00 +1°C° 0 mm 3 mps 667 mmHg 90%
    22:00 +1°C° 0 mm 3 mps 667 mmHg 90%
    23:00 0°C° 0 mm 3 mps 667 mmHg 90%

    Tomorrow, 24 February, Friday

    Time Temperature Precipitation Wind Pressure Humidity
    00:00 0°C° 0 mm 3 mps 667 mmHg 90%
    01:00 0°C° 0 mm 3 mps 667 mmHg 90%
    02:00 0°C° 0.3 mm 3 mps 667 mmHg 91%
    03:00 +1°C° 0.3 mm 3 mps 667 mmHg 92%
    04:00 +1°C° 0.3 mm 3 mps 667 mmHg 92%
    05:00 0°C° 0.8 mm 3 mps 667 mmHg 93%
    06:00 +1°C° 0.8 mm 2 mps 668 mmHg 94%
    07:00 +1°C° 0.8 mm 2 mps 668 mmHg 95%
    08:00 0°C° 0.7 mm 3 mps 669 mmHg 95%
    09:00 0°C° 0.7 mm 3 mps 669 mmHg 94%
    10:00 0°C° 0.7 mm 3 mps 669 mmHg 93%
    11:00 0°C° 0.6 mm 3 mps 670 mmHg 93%
    12:00 0°C° 0.6 mm 3 mps 670 mmHg 92%
    13:00 0°C° 0.6 mm 3 mps 670 mmHg 91%
    14:00 0°C° 0.5 mm 3 mps 670 mmHg 92%
    15:00 0°C° 0.5 mm 3 mps 670 mmHg 92%
    16:00 -1°C° 0.5 mm 3 mps 671 mmHg 93%
    17:00 -1°C° 0.4 mm 3 mps 671 mmHg 94%
    18:00 -2°C° 0.4 mm 3 mps 672 mmHg 95%
    19:00 -2°C° 0.4 mm 2 mps 673 mmHg 97%
    20:00 -3°C° 0.3 mm 2 mps 673 mmHg 97%
    21:00 -3°C° 0.3 mm 2 mps 674 mmHg 97%
    22:00 -4°C° 0.3 mm 2 mps 674 mmHg 97%
    23:00 -4°C° 0.1 mm 2 mps 675 mmHg 97%

    Day after tomorrow, 25 February, Saturday

    Time Temperature Precipitation Wind Pressure Humidity
    00:00 -5°C° 0.1 mm 2 mps 675 mmHg 97%
    01:00 -5°C° 0.1 mm 2 mps 675 mmHg 97%
    02:00 -6°C° 0 mm 2 mps 676 mmHg 96%
    03:00 -6°C° 0 mm 2 mps 676 mmHg 96%
    04:00 -7°C° 0 mm 2 mps 676 mmHg 95%
    05:00 -8°C° 0 mm 2 mps 676 mmHg 93%
    06:00 -8°C° 0 mm 2 mps 677 mmHg 92%
    07:00 -8°C° 0 mm 2 mps 677 mmHg 90%
    08:00 -6°C° 0 mm 2 mps 678 mmHg 87%
    09:00 -4°C° 0 mm 2 mps 678 mmHg 83%
    10:00 0°C° 0 mm 1 mps 679 mmHg 80%
    11:00 +1°C° 0 mm 1 mps 679 mmHg 77%
    12:00 +2°C° 0 mm 1 mps 679 mmHg 75%
    13:00 +3°C° 0 mm 1 mps 679 mmHg 72%
    14:00 +3°C° 0 mm 1 mps 678 mmHg 75%
    15:00 +3°C° 0 mm 1 mps 678 mmHg 78%
    16:00 +3°C° 0 mm 1 mps 678 mmHg 81%
    17:00 0°C° 0 mm 1 mps 677 mmHg 84%
    18:00 -4°C° 0 mm 1 mps 677 mmHg 87%
    19:00 -8°C° 0 mm 1 mps 676 mmHg 90%
    20:00 -7°C° 0 mm 1 mps 676 mmHg 85%
    21:00 -6°C° 0 mm 1 mps 677 mmHg 81%
    22:00 -6°C° 0 mm 2 mps 677 mmHg 76%
    23:00 -5°C° 0 mm 2 mps 677 mmHg 76%

    26 February, Sunday

    Time Temperature Precipitation Wind Pressure Humidity
    00:00 -5°C° 0 mm 2 mps 677 mmHg 76%
    01:00 -4°C° 0 mm 2 mps 677 mmHg 76%
    02:00 -4°C° 0 mm 2 mps 677 mmHg 76%
    03:00 -4°C° 0 mm 2 mps 677 mmHg 76%
    04:00 -4°C° 0 mm 2 mps 676 mmHg 76%
    05:00 -4°C° 0 mm 2 mps 676 mmHg 76%
    06:00 -4°C° 0 mm 2 mps 676 mmHg 76%
    07:00 -3°C° 0 mm 2 mps 676 mmHg 75%
    08:00 +1°C° 0 mm 1 mps 676 mmHg 78%
    09:00 +3°C° 0 mm 1 mps 677 mmHg 81%
    10:00 +6°C° 0 mm 1 mps 677 mmHg 84%
    11:00 +7°C° 0 mm 1 mps 677 mmHg 83%
    12:00 +7°C° 0 mm 1 mps 676 mmHg 82%
    13:00 +8°C° 0 mm 1 mps 676 mmHg 82%
    14:00 +8°C° 0 mm 1 mps 676 mmHg 84%
    15:00 +6°C° 0 mm 0 mps 676 mmHg 87%
    16:00 +6°C° 0 mm 0 mps 675 mmHg 89%
    17:00 +5°C° 0 mm 1 mps 675 mmHg 88%
    18:00 +3°C° 0 mm 1 mps 674 mmHg 87%
    19:00 +1°C° 0 mm 1 mps 674 mmHg 86%
    20:00 +1°C° 0 mm 1 mps 674 mmHg 84%
    21:00 +1°C° 0 mm 1 mps 674 mmHg 81%
    22:00 +1°C° 0 mm 1 mps 674 mmHg 79%
    23:00 +1°C° 0 mm 1 mps 674 mmHg 78%

    27 February, Monday

    Time Temperature Precipitation Wind Pressure Humidity
    00:00 +1°C° 0 mm 1 mps 674 mmHg 77%
    01:00 0°C° 0 mm 0 mps 673 mmHg 76%
    02:00 0°C° 0 mm 0 mps 673 mmHg 76%
    03:00 0°C° 0 mm 0 mps 673 mmHg 75%
    04:00 -1°C° 0 mm 0 mps 672 mmHg 75%
    05:00 -1°C° 0 mm 0 mps 672 mmHg 75%
    06:00 -1°C° 0 mm 0 mps 672 mmHg 76%
    07:00 -1°C° 0 mm 1 mps 672 mmHg 76%
    08:00 +2°C° 0 mm 1 mps 672 mmHg 78%
    09:00 +4°C° 0 mm 1 mps 673 mmHg 79%
    10:00 +7°C° 0 mm 1 mps 673 mmHg 81%
    11:00 +7°C° 0 mm 1 mps 672 mmHg 81%
    12:00 +8°C° 0 mm 1 mps 672 mmHg 81%
    13:00 +8°C° 0 mm 1 mps 671 mmHg 81%
    14:00 +8°C° 0 mm 1 mps 671 mmHg 83%
    15:00 +8°C° 0 mm 1 mps 670 mmHg 85%
    16:00 +7°C° 0 mm 1 mps 670 mmHg 87%
    17:00 +5°C° 0 mm 2 mps 669 mmHg 89%
    18:00 +4°C° 0 mm 2 mps 669 mmHg 90%
    19:00 +2°C° 0 mm 2 mps 669 mmHg 92%
    20:00 +1°C° 0 mm 3 mps 668 mmHg 92%
    21:00 0°C° 0 mm 3 mps 668 mmHg 91%
    22:00 0°C° 0 mm 3 mps 668 mmHg 91%
    23:00 0°C° 0 mm 3 mps 668 mmHg 90%

    28 February, Tuesday

    Time Temperature Precipitation Wind Pressure Humidity
    00:00 -1°C° 0 mm 3 mps 667 mmHg 90%
    01:00 -1°C° 0 mm 3 mps 667 mmHg 90%
    02:00 -1°C° 0 mm 3 mps 666 mmHg 90%
    03:00 -2°C° 0 mm 3 mps 666 mmHg 91%
    04:00 -2°C° 0 mm 2 mps 665 mmHg 91%
    05:00 -2°C° 0.3 mm 2 mps 665 mmHg 91%
    06:00 -2°C° 0.3 mm 2 mps 665 mmHg 91%
    07:00 -2°C° 0.3 mm 2 mps 665 mmHg 92%
    08:00 -1°C° 1.2 mm 2 mps 666 mmHg 92%
    09:00 -1°C° 1.2 mm 2 mps 666 mmHg 93%
    10:00 0°C° 1.2 mm 3 mps 666 mmHg 94%
    11:00 +1°C° 1 mm 2 mps 666 mmHg 94%
    12:00 +1°C° 1 mm 2 mps 666 mmHg 94%
    13:00 +1°C° 1 mm 2 mps 666 mmHg 94%
    14:00 +1°C° 0.6 mm 2 mps 665 mmHg 94%
    15:00 +1°C° 0.6 mm 2 mps 665 mmHg 94%
    16:00 +1°C° 0.6 mm 2 mps 665 mmHg 94%
    17:00 -1°C° 0.4 mm 2 mps 665 mmHg 94%
    18:00 -1°C° 0.4 mm 2 mps 665 mmHg 94%
    19:00 0°C° 0.4 mm 1 mps 665 mmHg 94%
    20:00 -2°C° 0.1 mm 2 mps 665 mmHg 94%
    21:00 -2°C° 0.1 mm 2 mps 665 mmHg 93%
    22:00 -3°C° 0.1 mm 2 mps 665 mmHg 93%
    23:00 -2°C° 0.5 mm 2 mps 665 mmHg 93%
    Show more